Tracking 19709 objects as of 17-Jun-2019
HD Live streaming from Space Station
objects crossing your sky now

COSMOS 825

Track COSMOS 825 now!
10-day predictions
COSMOS 825 is classified as:


NORAD ID: 8889
Int'l Code: 1976-054A
Perigee: 1,402.4 km
Apogee: 1,493.4 km
Inclination: 74.0 °
Period: 114.7 minutes
Semi major axis: 7818 km
RCS: 0.6977 m2 (medium)
Launch date: June 15, 1976
Source: Commonwealth of Independent States (former USSR) (CIS)
Launch site: PLESETSK MISSILE AND SPACE COMPLEX (PKMTR)
aabbcc
Your satellite tracking list
Your tracking list is empty




NASA's NSSDC Master Catalog

Two Line Element Set (TLE):
1  8889U 76054A   19167.80159020 +.00000007 +00000-0 +14040-3 0  9993
2  8889 073.9996 223.6703 0058149 059.4061 065.6273 12.55697018971159
Source of the keplerian elements: AFSPC